Date String (YYYY-MM-DD hh:mm:ss) UTC,Instrument flags,absolute air pressure of the measurement (hPa),sample flow rate (lpm),inlet stack bypass flow (lpm),air temperature of the measurement (°C),ambient temperature measured by the external sensor (°C),aerosol sample conditioner tube jacket temperature (°C),OPC LED temperature (°C),internal box temperature (°C),relative humidity of the measurement (%),span deviation,mass concentration of particles derived from Lorenz-Mie calculation of OPC scattering (μg/m³),mass concentration of particles derived from Lorenz-Mie calculation of OPC scattering (μg/m³),mass concentration of particles derived from Lorenz-Mie calculation of OPC scattering (μg/m³)
DateTimeUTC,F1_M11,P_M11,Q1_M11,Q2_M11,T1_M11,T2_M11,T3_M11,T4_M11,T5_M11,U1_M11,ZSPAN_M11,X2_M11,X0_M11,X1_M11
2024-01-28 20:00:00,SystemResetWarning,0836.2,5.00,000.00,025.8,025.3,000.0,033.9,027.3,12.0,0000.0,0002.23,0007.26,0001.83
2024-01-28 20:01:00,SystemResetWarning,0836.2,5.00,000.00,025.9,025.3,000.0,033.9,027.4,11.9,0000.0,0002.20,0007.19,0001.80
2024-01-28 20:02:00,SystemResetWarning,0836.2,5.00,000.00,025.9,025.3,000.0,033.9,027.4,11.9,0000.0,0002.14,0007.18,0001.75
2024-01-28 20:03:00,SystemResetWarning,0836.2,5.00,000.00,025.9,025.3,000.0,034.0,027.4,11.8,0000.0,0002.08,0007.32,0001.69
2024-01-28 20:04:00,SystemResetWarning,0836.2,5.01,000.00,025.9,025.3,000.0,034.0,027.4,11.9,0000.0,0002.01,0006.42,0001.65
2024-01-28 20:05:00,SystemResetWarning,0836.2,5.00,000.00,025.9,025.4,000.0,034.0,027.4,11.9,0000.0,0002.00,0005.02,0001.64
2024-01-28 20:06:00,SystemResetWarning,0836.2,5.00,000.00,026.0,025.4,000.0,034.0,027.5,11.9,0000.0,0002.03,0005.05,0001.66
2024-01-28 20:07:00,SystemResetWarning,0836.2,5.00,000.00,026.0,025.4,000.0,034.0,027.5,12.2,0000.0,0002.06,0005.15,0001.67
2024-01-28 20:08:00,SystemResetWarning,0836.2,5.00,000.00,026.0,025.4,000.0,034.1,027.5,12.2,0000.0,0002.06,0005.18,0001.65
2024-01-28 20:09:00,SystemResetWarning,0836.2,5.00,000.00,026.0,025.4,000.0,034.1,027.5,12.0,0000.0,0002.03,0004.23,0001.62
2024-01-28 20:10:00,SystemResetWarning,0836.1,5.00,000.00,026.0,025.5,000.0,034.1,027.5,12.0,0000.0,0001.99,0003.41,0001.62
2024-01-28 20:11:00,SystemResetWarning,0836.2,4.99,000.00,026.1,025.5,000.0,034.1,027.6,11.9,0000.0,0002.04,0003.48,0001.64
2024-01-28 20:12:00,SystemResetWarning,0836.1,5.00,000.00,026.1,025.5,000.0,034.1,027.6,12.0,0000.0,0002.07,0003.60,0001.67
2024-01-28 20:13:00,SystemResetWarning,0836.1,5.00,000.00,026.1,025.5,000.0,034.2,027.6,11.8,0000.0,0002.10,0003.80,0001.69
2024-01-28 20:14:00,SystemResetWarning,0836.1,5.00,000.00,026.1,025.5,000.0,034.2,027.6,11.9,0000.0,0002.16,0003.78,0001.76
2024-01-28 20:15:00,SystemResetWarning,0836.1,4.99,000.00,026.1,025.6,000.0,034.2,027.6,11.8,0000.0,0002.21,0003.83,0001.81
2024-01-28 20:16:00,SystemResetWarning,0836.1,5.01,000.00,026.2,025.6,000.0,034.2,027.7,11.7,0000.0,0002.22,0004.18,0001.83
2024-01-28 20:17:00,SystemResetWarning,0836.1,5.01,000.00,026.2,025.6,000.0,034.3,027.7,11.9,0000.0,0002.18,0004.55,0001.79
2024-01-28 20:18:00,SystemResetWarning,0836.1,5.00,000.00,026.2,025.6,000.0,034.3,027.7,11.9,0000.0,0002.15,0004.51,0001.74
2024-01-28 20:19:00,SystemResetWarning,0836.1,5.01,000.00,026.2,025.6,000.0,034.3,027.7,11.8,0000.0,0002.15,0004.63,0001.72
2024-01-28 20:20:00,SystemResetWarning,0836.1,4.99,000.00,026.2,025.7,000.0,034.3,027.7,11.7,0000.0,0002.12,0004.71,0001.70
2024-01-28 20:21:00,SystemResetWarning,0836.1,5.00,000.00,026.3,025.7,000.0,034.3,027.8,11.9,0000.0,0002.08,0004.63,0001.65
2024-01-28 20:22:00,SystemResetWarning,0836.1,5.00,000.00,026.3,025.7,000.0,034.4,027.8,11.9,0000.0,0001.99,0004.51,0001.58
2024-01-28 20:23:00,SystemResetWarning,0836.1,5.01,000.00,026.3,025.7,000.0,034.4,027.8,11.8,0000.0,0001.89,0004.27,0001.51
2024-01-28 20:24:00,SystemResetWarning,0836.1,5.00,000.00,026.3,025.8,000.0,034.4,027.9,11.8,0000.0,0001.81,0003.98,0001.46
2024-01-28 20:25:00,SystemResetWarning,0836.1,5.00,000.00,026.4,025.8,000.0,034.4,027.9,11.7,0000.0,0001.75,0003.60,0001.42
2024-01-28 20:26:00,SystemResetWarning,0836.1,5.00,000.00,026.4,025.8,000.0,034.4,027.9,11.7,0000.0,0001.71,0003.93,0001.39
2024-01-28 20:27:00,SystemResetWarning,0836.1,5.00,000.00,026.4,025.8,000.0,034.5,027.9,11.5,0000.0,0001.73,0003.97,0001.38
2024-01-28 20:28:00,SystemResetWarning,0836.1,5.00,000.00,026.4,025.8,000.0,034.5,027.9,11.6,0000.0,0001.81,0003.58,0001.41
2024-01-28 20:29:00,SystemResetWarning,0836.1,4.99,000.00,026.4,025.9,000.0,034.5,028.0,11.5,0000.0,0001.82,0003.54,0001.43
2024-01-28 20:30:00,SystemResetWarning,0836.1,5.00,000.00,026.5,025.9,000.0,034.5,028.0,11.5,0000.0,0001.83,0003.51,0001.45
2024-01-28 20:31:00,SystemResetWarning,0836.1,5.00,000.00,026.5,025.9,000.0,034.5,028.0,11.6,0000.0,0001.91,0003.30,0001.53
2024-01-28 20:32:00,SystemResetWarning,0836.1,5.00,000.00,026.5,025.9,000.0,034.6,028.0,11.4,0000.0,0002.08,0003.62,0001.69
2024-01-28 20:33:00,SystemResetWarning,0836.1,5.00,000.00,026.5,026.0,000.0,034.6,028.0,11.5,0000.0,0002.32,0005.69,0001.88
2024-01-28 20:34:00,SystemResetWarning,0836.1,5.00,000.00,026.5,026.0,000.0,034.6,028.0,11.7,0000.0,0002.52,0005.92,0002.08
2024-01-28 20:35:00,SystemResetWarning,0836.1,5.00,000.00,026.6,026.0,000.0,034.6,028.0,11.4,0000.0,0002.73,0006.38,0002.25
2024-01-28 20:36:00,SystemResetWarning,0836.1,5.00,000.00,026.6,026.0,000.0,034.7,028.1,11.4,0000.0,0002.91,0007.35,0002.39
2024-01-28 20:37:00,SystemResetWarning,0836.1,5.00,000.00,026.6,026.0,000.0,034.7,028.1,11.3,0000.0,0003.06,0007.76,0002.51
2024-01-28 20:38:00,SystemResetWarning,0836.1,5.00,000.00,026.6,026.1,000.0,034.7,028.1,11.3,0000.0,0003.14,0007.81,0002.61
2024-01-28 20:39:00,SystemResetWarning,0836.1,5.00,000.00,026.6,026.1,000.0,034.7,028.1,11.5,0000.0,0003.16,0007.79,0002.67
2024-01-28 20:40:00,SystemResetWarning,0836.1,5.00,000.00,026.7,026.1,000.0,034.7,028.1,11.3,0000.0,0003.19,0008.02,0002.75
2024-01-28 20:41:00,SystemResetWarning,0836.1,5.00,000.00,026.7,026.1,000.0,034.8,028.2,11.3,0000.0,0003.24,0008.27,0002.87
2024-01-28 20:42:00,SystemResetWarning,0836.1,5.00,000.00,026.7,026.1,000.0,034.8,028.2,11.4,0000.0,0003.30,0008.52,0002.95
2024-01-28 20:43:00,SystemResetWarning,0836.1,5.01,000.00,026.7,026.1,000.0,034.8,028.2,11.3,0000.0,0003.29,0008.55,0002.94
2024-01-28 20:44:00,SystemResetWarning,0836.2,5.00,000.00,026.7,026.2,000.0,034.8,028.2,11.3,0000.0,0003.21,0007.40,0002.86
2024-01-28 20:45:00,SystemResetWarning,0836.1,5.00,000.00,026.8,026.2,000.0,034.8,028.2,11.3,0000.0,0003.18,0007.31,0002.81
2024-01-28 20:46:00,SystemResetWarning,0836.1,4.98,000.00,026.8,026.2,000.0,034.9,028.2,11.4,0000.0,0003.16,0007.24,0002.75
2024-01-28 20:47:00,SystemResetWarning,0836.1,5.00,000.00,026.8,026.2,000.0,034.9,028.3,11.5,0000.0,0003.14,0006.53,0002.75
2024-01-28 20:48:00,SystemResetWarning,0836.1,5.01,000.00,026.8,026.2,000.0,034.9,028.3,11.4,0000.0,0003.17,0005.60,0002.76
2024-01-28 20:49:00,SystemResetWarning,0836.1,5.01,000.00,026.8,026.3,000.0,034.9,028.3,11.4,0000.0,0003.15,0006.10,0002.76
2024-01-28 20:50:00,SystemResetWarning,0836.1,5.00,000.00,026.9,026.3,000.0,034.9,028.3,11.5,0000.0,0003.17,0006.31,0002.79
2024-01-28 20:51:00,SystemResetWarning,0836.1,5.00,000.00,026.9,026.3,000.0,035.0,028.3,11.5,0000.0,0003.22,0006.33,0002.86
2024-01-28 20:52:00,SystemResetWarning,0836.1,5.00,000.00,026.9,026.3,000.0,035.0,028.3,11.6,0000.0,0003.26,0005.94,0002.90
2024-01-28 20:53:00,SystemResetWarning,0836.1,5.02,000.00,026.9,026.3,000.0,035.0,028.3,11.5,0000.0,0003.28,0005.79,0002.94
2024-01-28 20:54:00,SystemResetWarning,0836.1,5.00,000.00,026.9,026.4,000.0,035.0,028.3,11.4,0000.0,0003.31,0005.71,0002.98
2024-01-28 20:55:00,SystemResetWarning,0836.1,4.99,000.00,026.9,026.4,000.0,035.0,028.4,11.2,0000.0,0003.34,0005.79,0003.03
2024-01-28 20:56:00,SystemResetWarning,0836.0,5.01,000.00,027.0,026.4,000.0,035.1,028.4,11.3,0000.0,0003.38,0006.05,0003.07
2024-01-28 20:57:00,SystemResetWarning,0836.1,4.99,000.00,027.0,026.4,000.0,035.1,028.4,11.3,0000.0,0003.40,0006.01,0003.11
2024-01-28 20:58:00,SystemResetWarning,0836.1,5.01,000.00,027.0,026.4,000.0,035.1,028.5,11.5,0000.0,0003.42,0006.02,0003.13
2024-01-28 20:59:00,SystemResetWarning,0836.1,5.01,000.00,027.0,026.4,000.0,035.1,028.5,11.4,0000.0,0003.42,0006.08,0003.12
